Probability
73 79 85 85 87 87 86 84 83 81 78 76 78 81 83 84 81 77 73 71 70 69 67 65 64 63 62 58 53 49 44 39 35 29 21 17 16 15 13 12 12 8 6
70 74 77 79 81 83 82 80 81 82 80 79 80 82 82 79 74 69 64 60 57 56 54 53 53 52 49 45 42 40 36 30 24 19 13 9 8 7 6 6 6 4 4
59 60 63 68 72 75 74 73 76 80 82 81 79 79 76 70 62 54 46 41 38 37 35 34 34 33 32 29 26 24 22 18 12 8 6 3 2 0 0 1 1 1 2
46 45 47 53 59 63 63 63 66 71 75 76 73 70 68 60 49 38 30 26 23 21 21 19 19 19 18 17 13 11 10 8 5 3 3 2 1 0 0 0 0 0 1
38 34 31 33 38 43 46 46 47 50 55 58 58 57 54 45 35 25 19 15 12 10 9 8 8 8 8 7 5 4 3 2 1 1 1 1 0 0 0 0 0 0 0
25 21 15 13 15 20 23 24 23 24 28 32 35 37 33 26 18 12 9 6 4 3 2 2 2 2 1 1 2 1 1 0 0 0 0 0 0 0 0 0 0 0 0
8 7 4 2 2 5 7 7 6 6 8 11 13 14 14 10 6 3 2 1 1 0 0 0 0 0 0 0 0 0 0 0 0 0 0 0 0 0 0 0 0 0 0
1 0 0 0 0 1 1 1 1 1 1 2 2 2 2 2 1 0 0 0 0 0 0 0 0 0 0 0 0 0 0 0 0 0 0 0 0 0 0 0 0 0 0
0 0 0 0 0 0 0 0 0 0 0 0 0 0 0 0 0 0 0 0 0 0 0 0 0 0 0 0 0 0 0 0 0 0 0 0 0 0 0 0 0 0 0
0 0 0 0 0 0 0 0 0 0 0 0 0 0 0 0 0 0 0 0 0 0 0 0 0 0 0 0 0 0 0 0 0 0 0 0 0 0 0 0 0 0 0
0 0 0 0 0 0 0 0 0 0 0 0 0 0 0 0 0 0 0 0 0 0 0 0 0 0 0 0 0 0 0 0 0 0 0 0 0 0 0 0 0 0 0
0 0 0 0 0 0 0 0 0 0 0 0 0 0 0 0 0 0 0 0 0 0 0 0 0 0 0 0 0 0 0 0 0 0 0 0 0 0 0 0 0 0 0
0 0 0 0 0 0 0 0 0 0 0 0 0 0 0 0 0 0 0 0 0 0 0 0 0 0 0 0 0 0 0 0 0 0 0 0 0 0 0 0 0 0 0
0 0 0 0 0 0 0 0 0 0 0 0 0 0 0 0 0 0 0 0 0 0 0 0 0 0 0 0 0 0 0 0 0 0 0 0 0 0 0 0 0 0 0
0 0 0 0 0 0 0 0 0 0 0 0 0 0 0 0 0 0 0 0 0 0 0 0 0 0 0 0 0 0 0 0 0 0 0 0 0 0 0 0 0 0 0
0 0 0 0 0 0 0 0 0 0 0 0 0 0 0 0 0 0 0 0 0 0 0 0 0 0 0 0 0 0 0 0 0 0 0 0 0 0 0 0 0 0 0
0 0 0 0 0 0 0 0 0 0 0 0 0 0 0 0 0 0 0 0 0 0 0 0 0 0 0 0 0 0 0 0 0 0 0 0 0 0 0 0 0 0 0
0 0 0 0 0 0 0 0 0 0 0 0 0 0 0 0 0 0 0 0 0 0 0 0 0 0 0 0 0 0 0 0 0 0 0 0 0 0 0 0 0 0 0
0 0 0 0 0 0 0 0 0 0 0 0 0 0 0 0 0 0 0 0 0 0 0 0 0 0 0 0 0 0 0 0 0 0 0 0 0 0 0 0 0 0 0
0 0 0 0 0 0 0 0 0 0 0 0 0 0 0 0 0 0 0 0 0 0 0 0 0 0 0 0 0 0 0 0 0 0 0 0 0 0 0 0 0 0 0
0 0 0 0 0 0 0 0 0 0 0 0 0 0 0 0 0 0 0 0 0 0 0 0 0 0 0 0 0 0 0 0 0 0 0 0 0 0 0 0 0 0 0
0 0 0 0 0 0 0 0 0 0 0 0 0 0 0 0 0 0 0 0 0 0 0 0 0 0 0 0 0 0 0 0 0 0 0 0 0 0 0 0 0 0 0
0 0 0 0 0 0 0 0 0 0 0 0 0 0 0 0 0 0 0 0 0 0 0 0 0 0 0 0 0 0 0 0 0 0 0 0 0 0 0 0 0 0 0
0 0 0 0 0 0 0 0 0 0 0 0 0 0 0 0 0 0 0 0 0 0 0 0 0 0 0 0 0 0 0 0 0 0 0 0 0 0 0 0 0 0 0
0 0 0 0 0 0 0 0 0 0 0 0 0 0 0 0 0 0 0 0 0 0 0 0 0 0 0 0 0 0 0 0 0 0 0 0 0 0 0 0 0 0 0
0 0 0 0 0 0 0 0 0 0 0 0 0 0 0 0 0 0 0 0 0 0 0 0 0 0 0 0 0 0 0 0 0 0 0 0 0 0 0 0 0 0 0
Wind_Speed
8 9 10 10 10 11 9 7 7 8 7 6 6 5 4 4 4 4 4 4 4 3 2 1 2 1 1 1 0 0 1 1 1 1 2 2 1 2 2 2 2 3 3
11 10 10 7 8 9 8 7 5 6 6 5 4 3 3 4 4 4 5 6 6 5 3 3 3 2 2 2 2 1 0 1 1 0 1 2 1 1 1 1 2 2 3
14 14 13 9 8 8 6 4 4 5 5 5 4 4 4 3 3 5 5 8 8 7 7 6 5 4 3 2 2 1 0 0 1 1 0 1 2 0 1 1 2 2 2
14 13 13 13 12 10 8 7 6 5 4 4 5 5 4 4 5 5 6 8 9 9 9 8 7 6 5 4 4 4 3 2 1 1 1 1 1 1 1 0 1 1 2
14 13 14 13 13 13 12 11 11 10 8 6 5 5 5 6 7 7 9 9 9 11 10 9 8 7 6 7 7 6 6 4 4 3 1 1 1 2 0 1 1 1 0
14 14 14 13 13 13 13 13 14 15 14 12 11 10 10 10 10 10 9 8 7 9 11 10 8 8 7 8 7 7 8 6 6 5 4 3 3 2 2 1 1 1 1
13 13 14 14 14 15 14 14 15 15 14 15 15 14 13 13 12 10 9 9 8 8 9 9 8 8 8 8 7 8 8 7 7 6 4 4 4 3 2 2 2 2 2
13 13 13 13 13 14 14 14 15 15 15 15 15 14 14 11 10 12 10 10 8 8 9 9 9 9 9 9 8 7 7 7 7 8 7 4 4 4 3 2 2 3 2
13 13 13 13 13 14 14 14 15 15 15 15 15 15 15 14 13 12 11 9 8 8 10 9 9 9 9 8 7 7 7 7 7 6 6 5 4 4 3 3 2 2 3
13 12 12 12 12 12 13 13 15 16 15 14 13 13 14 13 12 12 12 11 10 8 8 8 8 8 7 7 6 5 6 6 5 4 5 5 4 4 4 3 3 2 2
12 11 11 11 12 12 13 13 14 14 14 14 13 14 13 12 12 11 10 9 7 7 7 7 6 6 6 5 5 5 5 5 4 4 4 3 2 3 3 3 3 3 3
12 11 11 12 12 13 12 12 13 13 13 12 12 12 12 11 10 10 8 7 7 6 6 5 5 5 5 4 4 5 5 4 4 4 4 4 4 5 4 4 4 3 3
12 11 11 11 11 11 11 11 11 12 11 11 11 11 10 9 9 8 7 6 6 6 5 5 5 5 6 6 5 5 4 4 4 4 4 4 5 5 5 5 4 4 5
11 11 11 10 10 10 10 10 10 10 10 10 10 10 9 8 7 7 6 6 5 5 5 5 5 7 8 9 8 8 5 4 3 3 3 3 3 4 5 5 5 5 6
11 11 11 10 9 8 8 8 8 8 9 10 10 9 8 7 6 6 5 4 4 5 4 5 6 6 7 8 9 8 7 6 4 4 4 4 2 1 3 4 4 5 5
12 11 10 9 8 7 7 8 7 7 8 8 9 8 7 6 6 5 5 5 5 5 5 5 6 8 7 8 10 9 8 7 5 4 4 4 1 1 4 7 8 8 7
12 11 9 8 7 6 6 7 7 6 7 7 8 7 7 6 5 6 5 5 5 4 4 5 6 7 6 7 9 11 8 7 5 4 3 5 4 4 6 7 9 9 10
11 10 8 7 6 6 5 5 6 6 6 7 7 7 6 6 5 5 5 4 4 3 3 4 5 6 5 5 8 13 8 6 4 3 3 3 3 5 6 8 8 8 7
10 9 7 6 6 5 5 5 5 6 6 7 6 6 6 5 5 5 4 3 2 2 2 3 4 4 3 3 7 10 8 4 5 5 4 3 4 4 6 7 8 8 7
9 8 7 6 6 5 4 5 5 6 6 7 6 6 5 5 5 4 3 2 1 2 2 3 3 3 4 2 5 8 6 6 6 5 3 3 3 6 6 6 7 8 8
9 8 7 6 5 5 4 5 6 6 6 6 6 5 4 3 4 3 2 2 2 2 1 2 2 3 3 2 3 5 5 6 7 6 5 2 4 9 10 8 7 9 9
9 8 7 6 5 4 5 6 6 5 5 5 5 3 2 2 4 2 1 1 2 1 0 1 2 2 3 2 1 5 6 6 6 6 5 6 11 13 14 10 10 12 10
9 7 7 7 5 4 5 6 5 4 4 4 4 3 2 3 2 2 2 1 2 3 3 3 3 2 2 2 3 7 9 9 5 6 10 13 15 13 9 8 11 9 5
8 7 8 7 6 5 5 5 4 4 3 3 2 2 1 1 1 2 3 4 5 5 5 5 4 3 3 5 6 7 7 9 7 8 11 13 12 8 8 8 6 4 4
7 7 7 7 7 5 5 5 4 3 2 1 0 1 1 2 2 4 4 5 5 4 4 5 5 5 5 5 6 5 6 7 7 9 8 5 4 4 4 4 4 4 3
8 7 7 7 7 6 5 5 4 3 2 1 0 1 1 1 2 4 5 7 5 4 4 3 3 2 3 6 9 10 11 13 10 7 6 5 4 4 5 5 5 4 4
Wind_Direction
100 102 107 116 124 121 128 135 146 143 148 159 168 171 163 132 113 105 103 102 95 92 93 93 91 83 85 78 11 7 302 345 12 335 314 312 355 22 14 17 26 40 55
61 67 74 84 106 113 122 131 143 146 155 158 161 154 137 120 110 93 75 69 69 62 75 64 56 54 57 53 42 32 225 77 37 359 303 295 280 286 360 20 28 31 45
55 46 47 53 70 84 94 125 130 136 150 144 141 132 110 104 96 82 65 52 54 53 51 53 52 41 37 39 34 11 311 134 76 62 103 269 276 23 42 26 26 30 39
56 52 48 39 42 48 58 61 73 76 90 116 137 142 139 127 100 92 84 66 55 52 47 48 54 54 46 40 29 28 22 33 74 85 79 72 29 333 308 36 42 43 40
66 59 53 43 40 43 46 50 55 51 48 57 76 97 98 99 95 88 82 76 62 54 48 44 48 51 51 50 50 48 46 40 42 39 35 56 42 31 348 316 349 347 8
67 61 57 48 41 44 47 49 53 50 46 54 62 74 83 89 90 84 80 72 65 57 52 52 51 52 52 50 50 54 55 52 51 45 41 44 39 17 8 351 326 317 287
66 59 55 52 49 48 49 52 57 55 53 58 61 67 75 79 80 81 78 76 69 63 55 56 55 55 56 55 54 56 53 50 53 52 43 44 43 24 359 354 337 315 291
72 66 60 56 55 53 54 57 59 59 58 61 64 67 70 73 74 76 78 76 74 68 62 59 57 55 53 54 54 53 52 48 47 46 38 33 35 24 17 4 349 334 329
77 73 68 64 63 61 60 63 68 68 66 68 71 71 74 76 79 79 78 76 75 73 66 63 60 55 51 50 55 55 48 44 40 40 35 26 23 15 5 358 355 346 331
82 77 74 72 71 70 70 69 70 72 71 71 74 77 76 76 78 79 79 79 77 77 77 72 68 63 56 51 52 57 50 50 41 38 39 25 11 1 351 345 332 327 330
90 86 83 81 80 77 74 74 74 75 75 75 77 79 79 79 80 80 80 81 82 79 78 76 75 70 63 56 53 53 55 50 38 28 29 17 359 358 339 343 343 350 356
96 93 90 86 82 79 78 78 80 81 81 82 82 82 83 84 84 84 83 83 84 84 84 81 77 74 68 58 52 47 47 41 32 22 14 7 11 4 360 350 340 339 326
101 95 89 86 85 85 85 84 85 88 89 88 87 86 86 86 88 90 92 92 90 85 80 77 72 64 56 41 29 31 37 30 24 18 9 10 14 9 2 337 339 334 335
103 98 93 89 88 88 89 90 91 93 96 95 93 92 92 93 93 94 93 92 91 88 82 75 68 66 52 36 19 6 8 13 9 6 355 1 17 16 351 333 346 340 330
107 103 99 96 93 91 90 91 93 95 97 98 97 97 98 97 96 93 90 86 83 84 77 72 69 74 64 34 18 354 357 353 353 356 350 340 4 4 303 325 335 326 321
116 111 107 105 102 99 98 97 95 97 100 101 101 102 103 102 100 96 86 78 67 62 60 60 63 57 53 30 15 1 340 329 338 346 338 324 84 317 278 286 288 285 291
122 116 110 106 106 107 108 108 111 112 111 110 111 109 105 101 98 93 86 79 73 67 57 60 77 85 61 19 1 354 325 310 319 325 326 339 17 18 355 333 310 290 273
120 116 112 112 110 110 111 114 119 119 117 111 108 104 97 92 87 81 77 73 67 64 63 61 80 100 77 15 357 343 318 303 318 328 340 349 21 33 358 330 321 313 307
121 122 125 124 123 128 131 130 126 119 112 106 101 98 97 93 87 80 75 69 60 50 75 71 78 102 104 16 358 348 319 339 347 343 2 360 32 34 349 325 318 317 316
127 132 134 132 133 138 141 134 121 112 106 101 95 90 85 84 78 70 56 49 26 31 49 64 70 89 99 61 354 349 341 355 348 346 4 72 5 337 332 321 315 311 317
135 140 141 138 139 140 133 117 108 105 103 101 97 93 96 109 97 72 38 7 18 28 32 62 89 98 98 146 307 339 346 352 340 341 340 359 333 323 316 305 283 286 304
143 145 139 133 134 132 125 113 107 108 106 105 102 97 78 57 92 78 22 353 338 329 80 73 76 107 124 85 328 311 312 308 314 323 334 332 320 315 308 299 285 296 302
142 144 137 129 125 123 113 110 108 105 104 102 98 93 79 60 46 15 14 9 5 9 26 40 46 48 66 63 347 326 317 311 298 318 322 315 309 309 304 302 304 303 294
145 145 139 133 129 122 113 118 114 102 103 107 122 141 133 118 88 42 32 41 28 18 16 29 29 29 47 29 5 349 343 349 350 345 322 314 312 309 298 303 304 292 289
140 138 132 130 130 132 131 127 118 117 118 124 159 170 138 120 101 82 52 53 62 49 27 19 11 15 16 9 338 329 329 332 328 324 307 307 320 325 323 319 312 307 316
132 130 131 132 134 133 129 122 119 122 130 163 257 271 181 160 150 137 112 63 93 104 76 47 9 24 14 328 325 324 318 311 309 313 307 326 345 347 343 340 337 335 340